WM1R Weather Reports


time (UTC)temp
C
wind
direction
speed
KPH
gust
KPH
rain 1hr
cm
rain 24hr
cm
rain mn
cm
humidity
%
barometer
mb
20260504081516 5 224 1.6 14.5 0.00 0.00 0.00 78 1010.8
20260504050008 3 224 6.4 14.5 0.00 0.00 0.00 56 1010.7
20260504044524 3 205 3.2 11.3 0.00 0.00 0.00 58 1010.8
20260504043024 2 184 3.2 8.0 0.00 0.00 0.00 60 1010.9
20260504041523 3 160 4.8 9.7 0.00 0.00 0.00 59 1010.9
20260504040021 2 191 4.8 11.3 0.00 0.00 0.00 65 1010.7
20260504034512 1 184 4.8 8.0 0.00 0.00 0.00 67 1010.7
20260504033016 2 186 6.4 9.7 0.00 0.00 0.00 65 1010.7
20260504031525 2 202 4.8 11.3 0.00 0.00 0.00 65 1010.8
20260504030024 2 166 4.8 9.7 0.00 0.00 0.00 66 1010.7
20260504024523 2 198 6.4 9.7 0.00 0.00 0.00 66 1010.7
20260504023012 1 182 4.8 6.4 0.00 0.00 0.00 69 1010.9
20260504021520 1 217 3.2 4.8 0.00 0.00 0.00 73 1011.0
20260504020027 1 196 3.2 6.4 0.00 0.00 0.00 70 1010.8
20260504014524 1 180 3.2 4.8 0.00 0.00 0.00 69 1010.7
20260504013031 1 204 3.2 4.8 0.00 0.00 0.00 69 1010.7
20260504011515 1 209 3.2 4.8 0.00 0.00 0.00 69 1010.6
20260504010004 2 218 3.2 4.8 0.00 0.00 0.00 69 1010.6
20260504004504 2 186 3.2 4.8 0.00 0.00 0.00 68 1010.5
20260504003007 3 187 1.6 3.2 0.00 0.00 0.00 59 1010.4
20260504001515 5 238 1.6 6.4 0.00 0.00 0.00 55 1010.1
20260504000019 5 201 3.2 6.4 0.00 0.00 0.00 54 1009.9
20260503234504 5 210 3.2 8.0 0.00 0.00 0.00 53 1009.8
20260503233008 6 232 3.2 14.5 0.00 0.00 0.00 52 1009.7
20260503231519 6 310 8.0 19.3 0.00 0.00 0.00 50 1009.7
20260503230014 6 101 3.2 17.7 0.00 0.00 0.00 51 1009.6
20260503224521 6 240 3.2 22.5 0.00 0.00 0.00 50 1009.6
20260503223005 6 266 3.2 20.9 0.00 0.00 0.00 52 1009.7
20260503221509 6 218 3.2 17.7 0.00 0.00 0.00 53 1009.6
20260503220014 6 220 3.2 14.5 0.00 0.00 0.00 55 1009.4
20260503214519 6 201 4.8 16.1 0.00 0.00 0.00 53 1009.4
20260503213023 6 299 3.2 20.9 0.00 0.00 0.00 54 1009.5
20260503211506 6 188 4.8 11.3 0.00 0.00 0.00 53 1009.5
20260503210015 6 274 4.8 19.3 0.00 0.00 0.00 54 1009.4
20260503204518 6 173 3.2 19.3 0.00 0.00 0.00 51 1009.4
20260503203019 6 187 3.2 17.7 0.00 0.00 0.00 52 1009.2
20260503201524 6 196 4.8 24.1 0.00 0.00 0.00 49 1009.1
20260503200009 7 33 4.8 29.0 0.00 0.00 0.00 48 1008.9
20260503194516 6 308 4.8 27.4 0.00 0.00 0.00 48 1009.0
20260503193020 6 101 3.2 19.3 0.00 0.00 0.00 50 1009.1
20260503191524 6 54 4.8 17.7 0.00 0.00 0.00 48 1009.1
20260503190017 7 254 6.4 20.9 0.00 0.00 0.00 48 1009.1
20260503184513 6 257 8.0 22.5 0.00 0.00 0.00 48 1009.1
20260503183019 6 256 8.0 20.9 0.00 0.03 0.00 48 1009.1
20260503181522 6 26 4.8 16.1 0.00 0.05 0.00 53 1009.0
20260503180036 6 221 9.7 24.1 0.00 0.05 0.00 50 1009.0
20260503174509 6 150 4.8 20.9 0.00 0.05 0.00 48 1008.8
20260503173012 6 271 6.4 20.9 0.00 0.05 0.00 50 1008.8
20260503171532 6 301 6.4 19.3 0.00 0.05 0.00 48 1009.0